GW0719 Weather Reports


Display with metric or nautical units.
time (UTC)temp
F
wind
direction
speed
MPH
gust
MPH
rain 1hr
in
rain 24hr
in
rain mn
in
humidity
%
barometer
mb
20260504223815 54 33 0.0 3.0 0.00 0.00 0.00 10 1016.7
20260504223310 54 4 2.0 5.0 0.00 0.00 0.00 10 1016.7
20260504222807 54 359 2.0 5.0 0.00 0.00 0.00 10 1016.5
20260504222305 53 16 0.0 24.0 0.00 0.00 0.00 10 1016.3
20260504221802 54 358 9.0 13.0 0.00 0.00 0.00 10 1016.5
20260504221258 54 20 11.0 26.0 0.00 0.00 0.00 10 1016.7
20260504220755 55 14 0.0 5.0 0.00 0.00 0.00 10 1016.5
20260504220252 53 6 0.0 1.0 0.00 0.00 0.00 10 1016.6
20260504215749 53 13 2.0 5.0 0.00 0.00 0.00 10 1016.8
20260504215246 55 15 1.0 6.0 0.00 0.00 0.00 10 1016.6
20260504214742 54 25 0.0 1.0 0.00 0.00 0.00 10 1016.6
20260504214238 53 12 0.0 1.0 0.00 0.00 0.00 10 1016.8
20260504213735 53 24 1.0 2.0 0.00 0.00 0.00 10 1016.9
20260504213232 53 21 0.0 22.0 0.00 0.00 0.00 10 1016.7
20260504212729 53 11 0.0 1.0 0.00 0.00 0.00 10 1016.6
20260504212225 52 45 0.0 5.0 0.00 0.00 0.00 10 1017.0
20260504211723 54 9 0.0 2.0 0.00 0.00 0.00 10 1017.0
20260504211219 52 0 0.0 1.0 0.00 0.00 0.00 10 1017.2
20260504210717 53 21 1.0 5.0 0.00 0.00 0.00 10 1016.9
20260504210214 53 13 0.0 5.0 0.00 0.00 0.00 10 1017.2
20260504205710 53 349 0.0 2.0 0.00 0.00 0.00 10 1017.0
20260504205208 53 0 19.0 26.0 0.00 0.00 0.00 10 1017.0
20260504204706 53 20 2.0 13.0 0.00 0.00 0.00 10 1017.2
20260504204205 52 42 2.0 5.0 0.00 0.00 0.00 10 1017.0
20260504203703 53 46 1.0 5.0 0.00 0.00 0.00 10 1017.3
20260504203201 53 3 1.0 3.0 0.00 0.00 0.00 10 1017.0
20260504202700 54 15 0.0 7.0 0.00 0.00 0.00 10 1017.0
20260504202158 54 3 0.0 3.0 0.00 0.00 0.00 10 1016.9
20260504201654 51 1 0.0 3.0 0.00 0.00 0.00 10 1017.0
20260504201152 53 12 0.0 2.0 0.00 0.00 0.00 10 1017.3
20260504200649 53 48 1.0 3.0 0.00 0.00 0.00 10 1016.9
20260504200146 54 10 1.0 5.0 0.00 0.00 0.00 10 1016.8
20260504195641 52 354 0.0 5.0 0.00 0.00 0.00 10 1017.0
20260504195138 51 17 0.0 6.0 0.00 0.00 0.00 10 1017.2
20260504194635 51 19 2.0 5.0 0.00 0.00 0.00 10 1017.0
20260504194131 52 1 1.0 2.0 0.00 0.00 0.00 10 1017.2
20260504193627 53 8 20.0 26.0 0.00 0.00 0.00 10 1017.2
20260504193126 51 7 0.0 5.0 0.00 0.00 0.00 10 1017.0
20260504192623 51 41 1.0 5.0 0.00 0.00 0.00 10 1017.0
20260504192121 51 3 3.0 5.0 0.00 0.00 0.00 10 1017.0
20260504191619 50 3 0.0 2.0 0.00 0.00 0.00 10 1017.2
20260504191115 51 359 0.0 5.0 0.00 0.00 0.00 10 1017.2
20260504190612 52 3 0.0 3.0 0.00 0.00 0.00 10 1017.3
20260504190108 51 356 0.0 2.0 0.00 0.00 0.00 10 1017.2
20260504185605 51 350 2.0 3.0 0.00 0.00 0.00 10 1016.9
20260504185101 51 23 0.0 1.0 0.00 0.00 0.00 10 1017.2
20260504184557 51 341 0.0 3.0 0.00 0.00 0.00 10 1017.4
20260504184052 51 9 0.0 5.0 0.00 0.00 0.00 10 1017.3
20260504183549 51 4 0.0 0.0 0.00 0.00 0.00 10 1017.2
20260504183048 52 23 0.0 1.0 0.00 0.00 0.00 10 1017.3
20260504182544 52 359 0.0 3.0 0.00 0.00 0.00 10 1017.4
20260504182042 52 52 0.0 2.0 0.00 0.00 0.00 10 1017.3
20260504181539 51 8 0.0 1.0 0.00 0.00 0.00 10 1017.5
20260504181037 51 6 1.0 2.0 0.00 0.00 0.00 10 1017.4
20260504180536 51 355 1.0 5.0 0.00 0.00 0.00 10 1017.6
20260504180034 51 27 0.0 5.0 0.00 0.00 0.00 10 1017.4
20260504175531 52 10 3.0 5.0 0.00 0.00 0.00 10 1017.3
20260504175028 52 2 0.0 3.0 0.00 0.00 0.00 10 1017.3
20260504174526 51 32 0.0 3.0 0.00 0.00 0.00 10 1017.4
20260504174022 51 357 3.0 6.0 0.00 0.00 0.00 10 1017.3
20260504173519 51 4 0.0 1.0 0.00 0.00 0.00 10 1017.3
20260504173017 51 6 1.0 3.0 0.00 0.00 0.00 10 1017.4
20260504172513 51 25 0.0 1.0 0.00 0.00 0.00 10 1017.3
20260504172009 50 352 0.0 2.0 0.00 0.00 0.00 10 1017.4
20260504171506 51 6 0.0 2.0 0.00 0.00 0.00 10 1017.5
20260504171003 51 355 0.0 1.0 0.00 0.00 0.00 10 1017.3
20260504170459 51 13 0.0 0.0 0.00 0.00 0.00 10 1017.4
20260504160419 50 8 0.0 0.0 0.00 0.00 0.00 10 1017.3
20260504150843 48 11 0.0 0.0 0.00 0.00 0.00 10 1017.5
20260504150339 48 356 0.0 0.0 0.00 0.00 0.00 10 1017.2
20260504141309 47 315 0.0 3.0 0.00 0.00 0.00 10 1017.2
20260504140806 47 304 2.0 3.0 0.00 0.00 0.00 10 1017.2
20260504140302 47 337 0.0 2.0 0.00 0.00 0.00 10 1016.8
20260504130731 45 314 0.0 1.0 0.00 0.00 0.00 10 1016.9
20260504130226 45 313 0.0 2.0 0.00 0.00 0.00 10 1016.9
20260504120150 45 314 0.0 1.0 0.00 0.00 0.00 10 1017.0
20260504110618 46 311 0.0 1.0 0.00 0.00 0.00 10 1017.3
20260504110114 46 332 0.0 0.0 0.00 0.00 0.00 10 1017.4
20260504100539 44 334 0.0 1.0 0.00 0.00 0.00 10 1017.3
20260504081933 46 46 0.0 21.0 0.00 0.00 0.00 10 1016.9
20260504081430 46 45 0.0 0.0 0.00 0.00 0.00 10 1016.9
20260504080926 46 61 0.0 16.0 0.00 0.00 0.00 10 1016.6
20260504080423 46 68 0.0 0.0 0.00 0.00 0.00 10 1016.7
20260504070350 49 44 0.0 2.0 0.00 0.00 0.00 10 1015.3
20260504050738 53 49 0.0 1.0 0.00 0.00 0.00 10 1013.1
20260504050235 53 59 0.0 0.0 0.00 0.00 0.00 10 1012.7
20260504045732 54 53 2.0 13.0 0.00 0.00 0.00 10 1012.6
20260504045227 54 68 0.0 1.0 0.00 0.00 0.00 10 1012.7
20260504044725 54 49 0.0 0.0 0.00 0.00 0.00 10 1013.0
20260504044222 55 51 2.0 14.0 0.00 0.00 0.00 10 1012.5
20260504043720 55 71 0.0 1.0 0.00 0.00 0.00 10 1012.4
20260504043216 55 47 1.0 16.0 0.00 0.00 0.00 10 1012.2
20260504042714 56 54 0.0 20.0 0.00 0.00 0.00 10 1012.3
20260504042210 56 37 0.0 2.0 0.00 0.00 0.00 10 1011.9
20260504041706 54 40 0.0 0.0 0.00 0.00 0.00 10 1011.5
20260504041202 54 38 0.0 0.0 0.00 0.00 0.00 10 1011.4
20260504040659 54 34 0.0 0.0 0.00 0.00 0.00 10 1011.3
20260504040156 54 29 0.0 0.0 0.00 0.00 0.00 10 1011.2
20260504035652 54 44 0.0 0.0 0.00 0.00 0.00 10 1011.1
20260504035150 54 39 0.0 0.0 0.00 0.00 0.00 10 1010.8
20260504034647 55 41 0.0 0.0 0.00 0.00 0.00 10 1010.7
20260504034144 55 36 0.0 0.0 0.00 0.00 0.00 10 1010.4
20260504033642 56 33 0.0 0.0 0.00 0.00 0.00 10 1010.1
20260504033139 56 46 0.0 0.0 0.00 0.00 0.00 10 1010.3
20260504032635 57 38 0.0 0.0 0.00 0.00 0.00 10 1010.2
20260504032132 57 43 0.0 0.0 0.00 0.00 0.00 10 1010.3
20260504031630 57 58 0.0 0.0 0.00 0.00 0.00 10 1010.1
20260504031126 58 40 0.0 0.0 0.00 0.00 0.00 10 1010.1
20260504030623 58 45 0.0 0.0 0.00 0.00 0.00 10 1009.9
20260504030119 59 48 0.0 0.0 0.00 0.00 0.00 10 1009.9
20260504025616 59 46 0.0 0.0 0.00 0.00 0.00 10 1009.7
20260504025113 59 43 0.0 0.0 0.00 0.00 0.00 10 1009.8
20260504024611 60 52 0.0 0.0 0.00 0.00 0.00 10 1009.6
20260504024107 61 53 0.0 1.0 0.00 0.00 0.00 10 1009.7
20260504023603 61 52 0.0 0.0 0.00 0.00 0.00 10 1009.7
20260504023059 62 37 0.0 0.0 0.00 0.00 0.00 10 1009.7
20260504022556 63 54 2.0 11.0 0.00 0.00 0.00 10 1009.4
20260504022052 63 41 1.0 2.0 0.00 0.00 0.00 10 1009.8
20260504021550 63 44 0.0 0.0 0.00 0.00 0.00 10 1009.6
20260504021046 64 42 0.0 0.0 0.00 0.00 0.00 10 1009.1
20260504020543 65 37 0.0 0.0 0.00 0.00 0.00 10 1009.3
20260504020040 66 26 0.0 0.0 0.00 0.00 0.00 10 1009.4
20260504015536 66 42 0.0 2.0 0.00 0.00 0.00 10 1009.6
20260504015032 67 39 0.0 0.0 0.00 0.00 0.00 10 1009.3
20260504014529 68 41 0.0 0.0 0.00 0.00 0.00 10 1009.2
20260504014026 69 26 0.0 0.0 0.00 0.00 0.00 10 1009.3
20260504013524 69 16 0.0 0.0 0.00 0.00 0.00 10 1009.6
20260504013020 70 20 0.0 1.0 0.00 0.00 0.00 10 1009.2
20260504012518 70 12 0.0 0.0 0.00 0.00 0.00 10 1009.3
20260504012016 71 2 0.0 0.0 0.00 0.00 0.00 10 1009.3
20260504011512 71 3 1.0 2.0 0.00 0.00 0.00 10 1009.2
20260504011008 71 33 1.0 2.0 0.00 0.00 0.00 10 1009.3
20260504010504 71 13 0.0 2.0 0.00 0.00 0.00 10 1009.3
20260504010000 71 349 0.0 2.0 0.00 0.00 0.00 10 1009.1
20260504005457 71 11 1.0 3.0 0.00 0.00 0.00 10 1009.3
20260504004954 71 1 1.0 2.0 0.00 0.00 0.00 10 1009.4
20260504004452 71 17 0.0 2.0 0.00 0.00 0.00 10 1009.4
20260504003949 71 14 0.0 0.0 0.00 0.00 0.00 10 1009.4
20260504003445 72 20 1.0 3.0 0.00 0.00 0.00 10 1009.4
20260504002942 71 359 0.0 1.0 0.00 0.00 0.00 10 1009.6
20260504002439 71 359 0.0 0.0 0.00 0.00 0.00 10 1009.7
20260504001936 71 23 1.0 2.0 0.00 0.00 0.00 10 1009.6
20260504001433 71 6 0.0 1.0 0.00 0.00 0.00 10 1009.6
20260504000930 72 4 0.0 0.0 0.00 0.00 0.00 10 1009.8
20260504000427 72 2 1.0 2.0 0.00 0.00 0.00 10 1009.8
20260503235924 72 358 0.0 14.0 0.00 0.00 0.00 10 1009.8
20260503235422 71 21 0.0 0.0 0.00 0.00 0.00 10 1009.9
20260503234919 71 28 1.0 2.0 0.00 0.00 0.00 10 1010.0
20260503234417 73 359 2.0 3.0 0.00 0.00 0.00 10 1009.8
20260503233914 72 333 1.0 3.0 0.00 0.00 0.00 10 1009.9
20260503233411 73 31 0.0 0.0 0.00 0.00 0.00 10 1009.9
20260503232907 73 353 1.0 2.0 0.00 0.00 0.00 10 1009.8
20260503232405 72 21 0.0 0.0 0.00 0.00 0.00 10 1009.9
20260503231902 72 8 0.0 2.0 0.00 0.00 0.00 10 1009.8
20260503231359 72 336 1.0 3.0 0.00 0.00 0.00 10 1009.8
20260503230855 72 353 1.0 2.0 0.00 0.00 0.00 10 1010.0
20260503230352 73 357 0.0 2.0 0.00 0.00 0.00 10 1010.0
20260503225850 71 21 0.0 0.0 0.00 0.00 0.00 10 1010.1
20260503225345 72 355 1.0 2.0 0.00 0.00 0.00 10 1010.0
20260503224842 72 359 0.0 2.0 0.00 0.00 0.00 10 1010.3
20260503224339 72 23 0.0 2.0 0.00 0.00 0.00 10 1010.2